Hourly Weather Lowech

Today, 12 August, Wednesday

Time Temperature Precipitation Wind Pressure Humidity
00:00 +24°C° 0 mm 1 mps 736 mmHg 51%
01:00 +24°C° 0 mm 1 mps 736 mmHg 52%
02:00 +23°C° 0 mm 2 mps 736 mmHg 52%
03:00 +23°C° 0 mm 1 mps 736 mmHg 54%
04:00 +23°C° 0 mm 1 mps 736 mmHg 55%
05:00 +22°C° 0 mm 1 mps 736 mmHg 57%
06:00 +24°C° 0.2 mm 1 mps 736 mmHg 58%
07:00 +25°C° 0.2 mm 1 mps 736 mmHg 58%
08:00 +26°C° 0.2 mm 2 mps 736 mmHg 59%
09:00 +28°C° 0.2 mm 2 mps 736 mmHg 53%
10:00 +30°C° 0.2 mm 2 mps 736 mmHg 48%
11:00 +31°C° 0.2 mm 2 mps 737 mmHg 43%
12:00 +32°C° 0.2 mm 2 mps 736 mmHg 40%
13:00 +34°C° 0.2 mm 2 mps 736 mmHg 37%
14:00 +34°C° 0.2 mm 2 mps 736 mmHg 35%
15:00 +34°C° 0.1 mm 2 mps 736 mmHg 35%
16:00 +34°C° 0.1 mm 2 mps 735 mmHg 35%
17:00 +32°C° 0.1 mm 2 mps 735 mmHg 36%
18:00 +30°C° 0.1 mm 2 mps 735 mmHg 42%
19:00 +28°C° 0.1 mm 2 mps 736 mmHg 49%
20:00 +26°C° 0.1 mm 1 mps 736 mmHg 55%
21:00 +25°C° 0.2 mm 1 mps 736 mmHg 60%
22:00 +24°C° 0.2 mm 1 mps 736 mmHg 64%
23:00 +23°C° 0.2 mm 1 mps 736 mmHg 69%

Tomorrow, 13 August, Thursday

Time Temperature Precipitation Wind Pressure Humidity
00:00 +22°C° 0 mm 1 mps 736 mmHg 71%
01:00 +22°C° 0 mm 1 mps 737 mmHg 72%
02:00 +21°C° 0 mm 1 mps 737 mmHg 74%
03:00 +21°C° 0 mm 1 mps 737 mmHg 77%
04:00 +20°C° 0 mm 1 mps 737 mmHg 80%
05:00 +19°C° 0 mm 1 mps 737 mmHg 83%
06:00 +21°C° 0 mm 1 mps 737 mmHg 78%
07:00 +22°C° 0 mm 1 mps 737 mmHg 73%
08:00 +24°C° 0 mm 1 mps 738 mmHg 67%
09:00 +26°C° 0.1 mm 1 mps 738 mmHg 61%
10:00 +27°C° 0.1 mm 2 mps 738 mmHg 54%
11:00 +29°C° 0.1 mm 2 mps 738 mmHg 48%
12:00 +30°C° 0.2 mm 2 mps 738 mmHg 44%
13:00 +32°C° 0.2 mm 1 mps 737 mmHg 41%
14:00 +33°C° 0.2 mm 1 mps 737 mmHg 38%
15:00 +32°C° 0 mm 1 mps 737 mmHg 38%
16:00 +32°C° 0 mm 2 mps 737 mmHg 38%
17:00 +31°C° 0 mm 2 mps 736 mmHg 38%
18:00 +29°C° 0 mm 2 mps 736 mmHg 43%
19:00 +27°C° 0 mm 1 mps 736 mmHg 48%
20:00 +26°C° 0 mm 1 mps 736 mmHg 53%
21:00 +25°C° 0 mm 1 mps 736 mmHg 56%
22:00 +24°C° 0 mm 1 mps 736 mmHg 58%
23:00 +23°C° 0 mm 1 mps 737 mmHg 61%

Day after tomorrow, 14 August, Friday

Time Temperature Precipitation Wind Pressure Humidity
00:00 +23°C° 0 mm 1 mps 737 mmHg 63%
01:00 +22°C° 0 mm 1 mps 736 mmHg 65%
02:00 +22°C° 0 mm 1 mps 736 mmHg 67%
03:00 +22°C° 0 mm 1 mps 736 mmHg 69%
04:00 +21°C° 0 mm 1 mps 736 mmHg 71%
05:00 +21°C° 0 mm 1 mps 736 mmHg 73%
06:00 +23°C° 0 mm 1 mps 736 mmHg 68%
07:00 +25°C° 0 mm 1 mps 736 mmHg 62%
08:00 +27°C° 0 mm 1 mps 736 mmHg 56%
09:00 +29°C° 0 mm 1 mps 736 mmHg 50%
10:00 +30°C° 0 mm 1 mps 736 mmHg 43%
11:00 +32°C° 0 mm 1 mps 736 mmHg 36%
12:00 +33°C° 0 mm 1 mps 736 mmHg 34%
13:00 +33°C° 0 mm 1 mps 735 mmHg 33%
14:00 +31°C° 0 mm 0 mps 735 mmHg 31%
15:00 +33°C° 0 mm 1 mps 735 mmHg 31%
16:00 +33°C° 0 mm 1 mps 734 mmHg 31%
17:00 +33°C° 0 mm 1 mps 734 mmHg 31%
18:00 +31°C° 0 mm 1 mps 734 mmHg 36%
19:00 +28°C° 0 mm 1 mps 734 mmHg 41%
20:00 +26°C° 0 mm 1 mps 734 mmHg 46%
21:00 +26°C° 0 mm 2 mps 735 mmHg 48%
22:00 +25°C° 0 mm 2 mps 735 mmHg 51%
23:00 +24°C° 0 mm 2 mps 735 mmHg 53%

15 August, Saturday

Time Temperature Precipitation Wind Pressure Humidity
00:00 +23°C° 0 mm 2 mps 735 mmHg 54%
01:00 +23°C° 0 mm 2 mps 735 mmHg 54%
02:00 +21°C° 0 mm 2 mps 735 mmHg 54%
03:00 +21°C° 0 mm 2 mps 735 mmHg 54%
04:00 +21°C° 0 mm 2 mps 735 mmHg 54%
05:00 +20°C° 0 mm 2 mps 735 mmHg 54%
06:00 +23°C° 0 mm 1 mps 735 mmHg 50%
07:00 +25°C° 0 mm 1 mps 735 mmHg 47%
08:00 +27°C° 0 mm 1 mps 735 mmHg 43%
09:00 +29°C° 0 mm 1 mps 735 mmHg 40%
10:00 +31°C° 0 mm 1 mps 735 mmHg 36%
11:00 +33°C° 0 mm 1 mps 736 mmHg 32%
12:00 +33°C° 0 mm 1 mps 735 mmHg 32%
13:00 +34°C° 0 mm 2 mps 735 mmHg 31%
14:00 +34°C° 0 mm 2 mps 734 mmHg 30%
15:00 +32°C° 0.1 mm 2 mps 734 mmHg 37%
16:00 +30°C° 0.1 mm 3 mps 734 mmHg 44%
17:00 +28°C° 0.1 mm 3 mps 733 mmHg 50%
18:00 +26°C° 0.5 mm 3 mps 734 mmHg 58%
19:00 +25°C° 0.5 mm 3 mps 734 mmHg 65%
20:00 +22°C° 0.5 mm 3 mps 734 mmHg 72%
21:00 +22°C° 0 mm 3 mps 734 mmHg 70%
22:00 +21°C° 0 mm 2 mps 735 mmHg 68%
23:00 +21°C° 0 mm 2 mps 735 mmHg 67%

16 August, Sunday

Time Temperature Precipitation Wind Pressure Humidity
00:00 +21°C° 0 mm 2 mps 735 mmHg 65%
01:00 +21°C° 0 mm 1 mps 735 mmHg 64%
02:00 +21°C° 0 mm 1 mps 735 mmHg 63%
03:00 +21°C° 0 mm 1 mps 735 mmHg 62%
04:00 +21°C° 0 mm 1 mps 735 mmHg 61%
05:00 +21°C° 0 mm 1 mps 735 mmHg 61%
06:00 +22°C° 0 mm 1 mps 735 mmHg 59%
07:00 +23°C° 0 mm 1 mps 736 mmHg 58%
08:00 +23°C° 0 mm 1 mps 736 mmHg 56%
09:00 +25°C° 0 mm 1 mps 736 mmHg 50%
10:00 +27°C° 0 mm 2 mps 736 mmHg 44%
11:00 +29°C° 0 mm 2 mps 737 mmHg 38%
12:00 +30°C° 0 mm 3 mps 736 mmHg 37%
13:00 +30°C° 0 mm 3 mps 736 mmHg 36%
14:00 +32°C° 0 mm 4 mps 736 mmHg 35%
15:00 +32°C° 0.1 mm 4 mps 736 mmHg 37%
16:00 +30°C° 0.1 mm 4 mps 735 mmHg 39%
17:00 +30°C° 0.1 mm 4 mps 735 mmHg 41%
18:00 +28°C° 0 mm 4 mps 735 mmHg 45%
19:00 +26°C° 0 mm 3 mps 736 mmHg 49%
20:00 +24°C° 0 mm 3 mps 736 mmHg 53%
21:00 +22°C° 0 mm 3 mps 736 mmHg 57%
22:00 +21°C° 0 mm 2 mps 736 mmHg 60%
23:00 +20°C° 0 mm 2 mps 737 mmHg 64%

17 August, Monday

Time Temperature Precipitation Wind Pressure Humidity
00:00 +20°C° 0 mm 2 mps 737 mmHg 67%
01:00 +20°C° 0 mm 2 mps 737 mmHg 69%
02:00 +19°C° 0 mm 2 mps 737 mmHg 72%
03:00 +20°C° 0 mm 1 mps 737 mmHg 73%
04:00 +20°C° 0 mm 1 mps 737 mmHg 75%
05:00 +19°C° 0 mm 1 mps 737 mmHg 76%
06:00 +21°C° 0 mm 1 mps 738 mmHg 70%
07:00 +22°C° 0 mm 1 mps 738 mmHg 63%
08:00 +23°C° 0 mm 2 mps 738 mmHg 57%
09:00 +25°C° 0 mm 2 mps 738 mmHg 49%
10:00 +27°C° 0 mm 3 mps 738 mmHg 41%
11:00 +28°C° 0 mm 3 mps 738 mmHg 34%
12:00 +29°C° 0 mm 3 mps 738 mmHg 32%
13:00 +30°C° 0 mm 3 mps 738 mmHg 30%
14:00 +31°C° 0 mm 3 mps 737 mmHg 28%
15:00 +31°C° 0 mm 3 mps 737 mmHg 28%
16:00 +31°C° 0 mm 2 mps 737 mmHg 29%
17:00 +31°C° 0 mm 2 mps 737 mmHg 29%
18:00 +29°C° 0 mm 2 mps 737 mmHg 34%
19:00 +26°C° 0 mm 1 mps 737 mmHg 39%
20:00 +24°C° 0 mm 1 mps 737 mmHg 44%
21:00 +23°C° 0 mm 1 mps 737 mmHg 48%
22:00 +21°C° 0 mm 2 mps 737 mmHg 52%
23:00 +20°C° 0 mm 2 mps 738 mmHg 57%
Show more